Location: Cowley
(49.5667°N, 114.0667°W)
Time: 11:10:58
(UTC+00:00)

Envisat - Pass Details

Date: 08 December 2021
Orbit: 764 x 766 km, 98.2° (Epoch: 25 January)

Event Time Altitude Azimuth Distance (km) Brightness Sun altitude
Rises 11:23:26 0° 27° (NNE) 3,245 6.6 -37.2°
Reaches altitude 10° 11:26:30 10° 46° (NE) 2,313 6.0 -36.7°
Maximum altitude 11:29:57 18° 89° (E) 1,810 5.5 -36.1°
Drops below altitude 10° 11:33:23 10° 132° (SE) 2,300 5.9 -35.6°
Sets 11:36:24 0° 151° (SSE) 3,220 6.5 -35.1°
